Regional Weather Roundup
Issued by NWS

Home | Current Version | Previous Version | Graphics & Text | Print | Product List | Glossary On
Versions: 1 2 3 4 5 6 7 8 9 10 11 12 13 14 15 16 17 18 19 20 21 22 23 24 25 26 27 28 29 30 31 32 33 34 35 36 37 38 39 40 41 42 43 44 45 46 47 48 49 50
000
ASUS45 KCYS 311210
RWRWY

WYOMING REGIONAL WEATHER ROUNDUP
NATIONAL WEATHER SERVICE CHEYENNE WY
600 AM MDT MON AUG 31 2015

NOTE:  "FAIR" INDICATES FEW OR NO CLOUDS BELOW 12,000 FEET
WITH NO SIGNIFICANT WEATHER AND/OR OBSTRUCTIONS TO VISIBILITY.

WYZ001-311300-
YELLOWSTONE NATIONAL PARK

CITY           SKY/WX    TMP DP  RH WIND       PRES   REMARKS
LK YELLOWSTONE   N/A     32  26  78 CALM      30.22R
6HR MIN TEMP:  32; 6HR MAX TEMP:  46;

W YELLOWSTONE  NOT AVBL

$$
WYZ002>013-054>058-071-098>099-311300-
NORTHERN WYOMING

CITY           SKY/WX    TMP DP  RH WIND       PRES   REMARKS
JACKSON        FAIR      46  30  53 CALM      30.16R
CODY           FAIR      48  37  66 W3        30.01F
GREYBULL       FAIR      57  41  55 VRB7      29.96R
6HR MIN TEMP:  57; 6HR MAX TEMP:  79;

WORLAND        FAIR      53  40  61 CALM      29.97R
6HR MIN TEMP:  53; 6HR MAX TEMP:  70;

SHERIDAN       FAIR      56  42  59 W12       30.01F
6HR MIN TEMP:  54; 6HR MAX TEMP:  75;

BUFFALO        FAIR      53  42  66 N12G23    30.05R
6HR MIN TEMP:  53; 6HR MAX TEMP:  75;

GILLETTE       FAIR      56  48  74 N10       30.01R
6HR MIN TEMP:  56; 6HR MAX TEMP:  75;

HULETT         FAIR      59  52  77 NW6       30.02R
NEWCASTLE      FAIR      64  45  48 N8        29.94R

$$
WYZ014>020-022>026-101>103-311300-
CENTRAL WYOMING

CITY           SKY/WX    TMP DP  RH WIND       PRES   REMARKS
BIG PINEY      FAIR      40  24  53 VRB5      30.22R
6HR MIN TEMP:  39; 6HR MAX TEMP:  57;

PINEDALE       FAIR      37  32  81 NW7       30.22S WCI  32
DUBOIS         FAIR      43  21  42 NW14      30.16S
LANDER         FAIR      58  36  43 CALM      30.07R
6HR MIN TEMP:  56; 6HR MAX TEMP:  72;

RIVERTON       FAIR      55  29  36 W7        30.06S
6HR MIN TEMP:  54; 6HR MAX TEMP:  70;

CASPER         FAIR      65  44  46 NW3       30.05R
6HR MIN TEMP:  61; 6HR MAX TEMP:  72;

DOUGLAS        FAIR      69  45  41 W7        30.02R
6HR MIN TEMP:  67; 6HR MAX TEMP:  77;


$$
WYZ021-027>030-104>119-311300-
SOUTHERN WYOMING

CITY           SKY/WX    TMP DP  RH WIND       PRES   REMARKS
EVANSTON       FAIR      52  38  58 N5        30.23R
6HR MIN TEMP:  51; 6HR MAX TEMP:  58;

KEMMERER       FAIR      43  34  70 NE3       30.22S
FORT BRIDGER   SUNNY     52  46  82 W8        30.23F
ROCK SPRINGS   FAIR      54  48  80 CALM      30.19R
6HR MIN TEMP:  52; 6HR MAX TEMP:  57;

DIXON          FAIR      55  52  89 NE8       30.23R
RAWLINS        FAIR      62  41  46 SW14      30.17R
6HR MIN TEMP:  57; 6HR MAX TEMP:  67; 6HR PCP: TRACE;

SARATOGA       PTSUNNY   55  50  82 SE17G25   30.20F
LARAMIE        CLOUDY    55  50  83 SW8       30.20F
6HR MIN TEMP:  55; 6HR MAX TEMP:  64; 6HR PCP: TRACE;

CHEYENNE       MOCLDY    67  46  47 W20       30.09F
6HR MIN TEMP:  63; 6HR MAX TEMP:  73; 6HR PCP: TRACE;

TORRINGTON     CLOUDY    72  52  49 W16G23    29.99R
6HR MIN TEMP:  68; 6HR MAX TEMP:  79; 6HR PCP: TRACE;

PINE BLUFFS    FAIR      70  46  43 NW12      30.05R

$$


USA.gov is the U.S. government's official web portal to all federal, state and local government web resources and services.